Saint Simons Island, GA

10:54 AM EDT on September 15, 2019 (GMT -0400)
McKinnon

Weather History for KSSI - August, 2019

Change the Weather History Date:

Monday, August 19, 2019

  Actual Average Record
Temperature  
Mean Temperature 82 °F 82 °F  
Max Temperature 87 °F 88 °F 98 °F (1983)
Min Temperature 77 °F 75 °F 67 °F (1960)
Degree Days  
Heating Degree Days 0 0  
Month to date heating degree days 0 0  
Since 1 June heating degree days 0 0  
Since 1 July heating degree days 0 0  
Cooling Degree Days 17 17  
Month to date cooling degree days 361 330  
Year to date cooling degree days 2230 1784  
Since 1 June cooling degree days 1501 1342  
Growing Degree Days 32 (Base 50)    
Moisture  
Dew Point 74 °F    
Average Humidity 78    
Maximum Humidity 85    
Minimum Humidity 70    
Precipitation  
Precipitation 0.04 in 0.21 in 2.60 in (1961)
Month to date precipitation 6.24 3.45  
Year to date precipitation 23.50 27.29  
Snow  
Snow 0.00 in - 0.00 in ()
Month to date snowfall 0.0  
Since 1 June snowfall 0.0  
Since 1 July snowfall 0.0  
Snow Depth 0.00 in    
Sea Level Pressure  
Sea Level Pressure 30.08 in    
Wind  
Wind Speed 6 mph (South)    
Max Wind Speed 14 mph    
Max Gust Speed 18 mph    
Visibility 10 miles    
Events Rain , Thunderstorm    
T = Trace of Precipitation, MM = Missing Value Source: NWS Daily Summary

Daily Weather History Graph

Daily Weather History Graph

Search for Another Location

Airport or City:

Astronomy

Aug. 19, 2019 Rise Set
Actual Time 6:53 AM EDT 8:04 PM EDT
Civil Twilight 6:28 AM EDT 8:29 PM EDT
Nautical Twilight 5:58 AM EDT 8:59 PM EDT
Astronomical Twilight 5:27 AM EDT 9:30 PM EDT
Moon 10:39 PM EDT (8/19) 10:21 AM EDT (8/19)
Length of Visible Light 14h 01m
Length of Day
13h 10m
Waning Gibbous, 85% of the Moon is Illuminated
Aug 19
Waning Gibbous
Aug 23
Last Quarter
Aug 30
New
Sep 5
First Quarter
Sep 14
Full

Hourly Weather History & Observations

Time (EDT) Temp. Heat Index Dew Point Humidity Pressure Visibility Wind Dir Wind Speed Gust Speed Precip Events Conditions
12:53 AM 77.0 °F - 72.0 °F 84% 30.08 in 10.0 mi SW 5.8 mph - N/A   Scattered Clouds
1:53 AM 77.0 °F - 72.0 °F 84% 30.06 in 10.0 mi South 3.5 mph - N/A   Clear
2:53 AM 77.0 °F - 71.1 °F 82% 30.06 in 10.0 mi SSW 4.6 mph - N/A   Clear
3:53 AM 78.1 °F - 72.0 °F 81% 30.06 in 10.0 mi SSW 5.8 mph - N/A   Clear
4:53 AM 77.0 °F - 72.0 °F 84% 30.06 in 10.0 mi SSW 6.9 mph - N/A   Clear
5:53 AM 77.0 °F - 72.0 °F 84% 30.06 in 10.0 mi SSW 3.5 mph - N/A   Clear
6:53 AM 78.1 °F - 72.0 °F 81% 30.07 in 10.0 mi SW 9.2 mph - N/A   Overcast
7:53 AM 79.0 °F - 72.0 °F 79% 30.08 in 10.0 mi SSW 5.8 mph - N/A   Clear
8:53 AM 81.0 °F 85.8 °F 73.0 °F 77% 30.07 in 10.0 mi SW 8.1 mph - N/A   Clear
9:53 AM 81.0 °F 85.8 °F 73.0 °F 77% 30.09 in 10.0 mi SW 10.4 mph - N/A   Clear
10:53 AM 84.0 °F 91.9 °F 75.0 °F 74% 30.11 in 10.0 mi SSE 6.9 mph - N/A   Scattered Clouds
11:02 AM 84.0 °F 91.2 °F 73.9 °F 72% 30.10 in 10.0 mi SSE 5.8 mph - N/A   Mostly Cloudy
11:29 AM 84.9 °F 93.3 °F 75.0 °F 72% 30.10 in 10.0 mi SSE 11.5 mph 17.3 mph N/A   Partly Cloudy
11:53 AM 86.0 °F 95.1 °F 75.0 °F 70% 30.11 in 10.0 mi SSE 11.5 mph 17.3 mph N/A   Partly Cloudy
12:53 PM 84.9 °F 93.3 °F 75.0 °F 72% 30.11 in 10.0 mi SSE 9.2 mph - N/A   Partly Cloudy
1:53 PM 86.0 °F 95.1 °F 75.0 °F 70% 30.09 in 10.0 mi SE 10.4 mph - 0.01 in   Partly Cloudy
2:28 PM 87.1 °F 96.3 °F 75.0 °F 67% 30.09 in 10.0 mi SSE 10.4 mph - N/A Thunderstorm Partly Cloudy
2:36 PM 84.9 °F 93.3 °F 75.0 °F 72% 30.09 in 10.0 mi South 10.4 mph - N/A Thunderstorm Thunderstorm
2:53 PM 82.9 °F 90.2 °F 75.0 °F 77% 30.09 in 10.0 mi South 11.5 mph - N/A Thunderstorm Thunderstorm
3:18 PM 78.1 °F - 73.9 °F 87% 30.06 in 4.0 mi SSW 5.8 mph - 0.03 in Rain Light Rain
3:53 PM 79.0 °F - 73.0 °F 82% 30.06 in 10.0 mi South 4.6 mph - 0.03 in   Mostly Cloudy
4:53 PM 82.9 °F 90.2 °F 75.0 °F 77% 30.05 in 10.0 mi SSE 9.2 mph - N/A   Clear
5:12 PM 82.9 °F 89.4 °F 73.9 °F 74% 30.03 in 10.0 mi SSE 9.2 mph - N/A   Partly Cloudy
5:53 PM 82.9 °F 89.4 °F 73.9 °F 74% 30.03 in 10.0 mi SSE 8.1 mph - N/A   Clear
6:53 PM 84.0 °F 90.2 °F 73.0 °F 69% 30.04 in 10.0 mi SSE 9.2 mph - N/A   Clear
7:53 PM 82.0 °F 87.4 °F 73.0 °F 74% 30.05 in 10.0 mi South 4.6 mph - N/A   Clear
8:53 PM 82.0 °F 87.9 °F 73.9 °F 76% 30.07 in 10.0 mi South 4.6 mph - N/A   Mostly Cloudy
9:53 PM 82.0 °F 87.9 °F 73.9 °F 76% 30.11 in 10.0 mi Calm Calm - N/A   Partly Cloudy
10:53 PM 82.0 °F 87.4 °F 73.0 °F 74% 30.12 in 10.0 mi Calm Calm - N/A   Mostly Cloudy
11:53 PM 81.0 °F 86.2 °F 73.9 °F 79% 30.12 in 10.0 mi SSW 3.5 mph - N/A   Clear